15min,AgWx,beryljct,423,19MAY2020:00:00:00,63.9,12.91,62.2,62.6,63.3,63.9,62.5,20,22,19,0.417,22.1,22.9,21.4,8.29,12.9,186,9.5,21.4,0.00107,0.00131,58.5,58.0,33,0,0,59.0,13.50,0.00,0.00
15min,AgWx,beryljct,423,19MAY2020:00:15:00,63.3,12.9,63.1,62.5,62.6,63.0,62.3,21,22,21,0.409,22.6,23.1,22.1,17.89,13.3,186,9.3,18.3,0.00105,0.00128,58.4,58.0,32,0,0,58.2,13.50,0.01,0.00
15min,AgWx,beryljct,423,19MAY2020:00:30:00,63.1,12.9,62.0,62.5,62.9,63.3,62.4,21,22,20,0.408,22.2,22.8,21.5,9.97,14.1,189,8.6,20.3,0.00111,0.00134,58.2,58.0,31,0,0,58.7,13.50,0.00,0.00
15min,AgWx,beryljct,423,19MAY2020:00:45:00,62.6,12.88,61.4,61.1,61.8,62.5,61.1,21,22,20,0.396,21.6,22.5,20.6,6.467,11.1,189,9.3,19.0,0.00093,0.00117,58.1,58.0,30,0,0,57.1,13.50,0.00,0.00
15min,AgWx,beryljct,423,19MAY2020:01:00:00,62.2,12.87,62.3,62.2,61.8,62.3,61.1,19,21,18,0.345,19.2,21.3,17.7,13.13,13.3,192,9.3,19.8,0.00106,0.00129,57.9,58.0,30,0,0,57.3,13.50,0.00,0.00
15min,AgWx,beryljct,423,19MAY2020:01:15:00,62.2,12.87,62.5,62.1,62.2,62.6,61.9,18,18,17,0.332,17.9,18.6,17.3,20.28,15.6,194,10,23.4,0.00118,0.00141,57.7,58.0,29,0,0,57.8,13.50,0.00,0.00
15min,AgWx,beryljct,423,19MAY2020:01:30:00,62.1,12.86,61.9,61.9,62.0,62.3,61.6,18,19,17,0.349,18.0,18.7,17.4,12.01,14.7,201,11,23.5,0.00114,0.00138,57.6,58.0,29,0,0,57.6,13.50,0.00,0.00
15min,AgWx,beryljct,423,19MAY2020:01:45:00,61.7,12.86,60.7,60.0,60.4,61.8,60.0,20,22,18,0.378,19.3,20.9,18.1,17.25,10.9,207,10,21.3,0.00090,0.00112,57.4,58.0,29,0,0,55.5,13.50,0.00,0.00
15min,AgWx,beryljct,423,19MAY2020:02:00:00,61.1,12.85,59.7,59.8,59.9,60.5,59.5,25,29,21,0.504,24.1,27.3,20.1,9.78,11.9,203,11,16.7,0.00088,0.00108,57.3,57.9,28,0,0,55.1,13.50,0.00,0.00
15min,AgWx,beryljct,423,19MAY2020:02:15:00,60.5,12.83,59.3,58.8,59.1,59.8,58.5,29,30,28,0.478,26.8,27.3,26.0,10.28,9.9,196,11,16.4,0.00072,0.00091,57.1,57.9,28,0,0,53.9,13.50,0.00,0.00
15min,AgWx,beryljct,423,19MAY2020:02:30:00,59.8,12.83,59.1,58.6,58.7,59.2,58.3,28,29,27,0.475,26.0,26.6,25.4,9.78,10.0,196,10,14.9,0.00072,0.00091,57.0,57.9,28,0,0,53.5,13.50,0.00,0.00
15min,AgWx,beryljct,423,19MAY2020:02:45:00,59.4,12.82,57.9,58.5,58.7,59.2,58.2,29,30,28,0.503,26.4,27.2,25.6,7.958,10.9,195,10,18.2,0.00076,0.00095,56.8,57.8,28,0,0,53.7,13.50,0.00,0.00
15min,AgWx,beryljct,423,19MAY2020:03:00:00,59.0,12.81,58.2,58.0,58.3,58.8,57.6,30,32,29,0.501,27.3,27.8,26.6,6.401,9.0,186,15,14.5,0.00064,0.00082,56.7,57.8,28,0,0,53.1,13.50,0.00,0.00
15min,AgWx,beryljct,423,19MAY2020:03:15:00,57.7,12.81,51.4,50.5,51.2,58.1,47.8,47,57,31,0.546,31.1,33.5,27.4,3.047,3.7,88,79,10.0,0.00011,0.00019,56.6,57.8,27,0,0,45.7,13.50,0.00,0.00
15min,AgWx,beryljct,423,19MAY2020:03:30:00,55.5,12.8,49.8,50.4,51.7,52.9,50.1,42,49,38,0.594,29.5,32.1,28.2,2.916,1.5,50,53,3.2,-0.00012,-0.00013,56.5,57.7,27,0,0,43.5,13.51,0.00,0.00
15min,AgWx,beryljct,423,19MAY2020:03:45:00,53.6,12.79,44.7,44.7,48.3,50.6,44.7,52,63,46,0.634,31.6,33.0,30.5,0,2.2,116,25,8.5,-0.00005,-0.00004,56.4,57.7,27,0,0,41.6,13.51,0.00,0.00
15min,AgWx,beryljct,423,19MAY2020:04:00:00,51.7,12.78,47.1,46.1,45.7,47.2,44.1,59,66,55,0.599,32.3,33.4,31.5,4.056,4.2,95,5.6,6.4,0.00005,0.00009,56.2,57.7,27,0,0,39.5,13.51,0.00,0.00
15min,AgWx,beryljct,423,19MAY2020:04:15:00,50.2,12.79,49.4,49.3,47.2,49.3,44.5,54,62,49,0.591,31.5,32.4,31.1,0.965,2.1,185,71,5.7,-0.00007,-0.00007,56.1,57.6,27,0,0,39.6,13.51,0.01,0.00
15min,AgWx,beryljct,423,19MAY2020:04:30:00,49.1,12.78,49.6,48.8,48.5,49.3,47.6,55,58,50,0.671,33.1,34.4,31.2,3.727,1.4,210,55,5.3,-0.00015,-0.00020,56.0,57.6,27,0,0,40.2,13.52,0.00,0.00
15min,AgWx,beryljct,423,19MAY2020:04:45:00,49.0,12.78,48.4,48.5,49.2,49.9,48.5,58,62,56,0.724,35.0,36.3,34.2,5.985,4.5,155,8.6,7.2,0.00042,0.00073,55.9,57.5,27,0,0,42.1,13.52,0.00,0.00
15min,AgWx,beryljct,423,19MAY2020:05:00:00,49.0,12.78,48.0,48.3,48.4,49.0,48.0,63,65,62,0.728,36.6,36.8,36.2,5.371,5.5,140,7.4,7.4,0.00043,0.00074,55.7,57.5,27,0,0,42.4,13.52,0.00,0.00
15min,AgWx,beryljct,423,19MAY2020:05:15:00,49.3,12.77,51.6,51.3,49.7,51.3,48.0,58,64,53,0.683,35.6,36.4,34.8,7.125,6.8,153,13,9.8,0.00059,0.00103,55.6,57.5,27,1,0,43.8,13.52,0.00,0.00
15min,AgWx,beryljct,423,19MAY2020:05:30:00,49.9,12.76,50.9,50.9,51.4,51.9,50.8,50,53,48,0.637,33.7,34.9,32.8,4.45,5.7,163,10,8.6,0.00067,0.00115,55.5,57.4,26,8,0,46.2,13.52,0.00,0.00
15min,AgWx,beryljct,423,19MAY2020:05:45:00,50.4,12.78,52.1,52.3,50.7,52.3,49.2,51,55,47,0.631,33.2,33.9,32.6,5.787,5.7,156,13,10.0,0.00077,0.00124,55.3,57.4,26,33,0,50.9,13.53,0.00,0.00
15min,AgWx,beryljct,423,19MAY2020:06:00:00,51.5,12.78,53.5,53.8,53.1,53.8,52.3,46,48,44,0.632,32.9,33.5,32.2,5.678,6.9,166,9.5,12.5,0.00113,0.00177,55.2,57.3,26,67,0,58.5,13.53,0.00,0.00
15min,AgWx,beryljct,423,19MAY2020:06:15:00,52.7,12.79,55.6,54.7,54.1,54.7,53.5,45,46,42,0.655,33.0,34.1,32.3,16.35,7.5,181,12,16.4,0.00126,0.00196,55.1,57.2,26,73,0,59.6,13.53,0.00,0.00
15min,AgWx,beryljct,423,19MAY2020:06:30:00,54.1,12.8,55.6,55.4,55.4,55.8,54.8,47,50,44,0.741,35.7,37.1,33.6,10.43,11.7,190,11,16.6,0.00164,0.00260,55.0,57.2,26,89,0,58.9,13.52,0.00,0.00
15min,AgWx,beryljct,423,19MAY2020:06:45:00,55.2,12.8,55.6,55.2,55.3,55.6,55.0,52,54,50,0.790,37.9,39.0,36.9,7.629,10.0,181,10,15.3,0.00147,0.00226,54.9,57.2,26,96,0,59.2,13.52,0.00,0.00
15min,AgWx,beryljct,423,19MAY2020:07:00:00,55.8,12.89,55.7,55.5,55.3,55.7,55.1,54,56,53,0.833,39.1,40.2,38.4,13.24,13.1,188,8.8,18.3,0.00170,0.00259,54.8,57.1,26,129,0,57.4,13.52,0.00,0.00
15min,AgWx,beryljct,423,19MAY2020:07:15:00,56.9,12.93,56.4,56.2,55.9,56.2,55.5,55,56,54,0.858,40.2,40.8,39.8,14.16,13.1,188,9.8,16.5,0.00199,0.00289,54.8,57.1,26,219,0,62.1,13.52,0.00,0.00
15min,AgWx,beryljct,423,19MAY2020:07:30:00,58.2,12.95,55.5,55.2,56.3,57.0,55.2,55,57,54,0.836,40.5,41.9,39.4,17.89,14.4,196,12,22.0,0.00229,0.00327,54.7,57.0,26,282,0,67.8,13.53,0.01,0.00
15min,AgWx,beryljct,423,19MAY2020:07:45:00,58.3,12.95,54.7,54.3,54.9,55.4,54.3,58,59,56,0.846,40.3,41.1,39.8,14.16,13.0,193,11,19.5,0.00178,0.00262,54.7,57.0,26,171,0,58.2,13.52,0.00,0.00
15min,AgWx,beryljct,423,19MAY2020:08:00:00,57.7,13.09,55.1,54.9,54.3,54.9,53.8,60,64,58,0.862,40.8,42.0,40.0,15.15,12.7,189,11,17.8,0.00196,0.00274,54.7,56.9,26,252,0,59.7,13.53,0.00,0.00
15min,AgWx,beryljct,423,19MAY2020:08:15:00,58.3,13.23,56.3,56.0,55.6,56.2,54.9,57,59,55,0.877,40.5,41.5,39.7,10.17,12.6,184,11,17.2,0.00288,0.00378,54.7,56.9,26,467,0,74.7,13.52,0.00,0.00
15min,AgWx,beryljct,423,19MAY2020:08:30:00,59.4,13.47,56.1,55.7,56.0,56.6,55.3,55,57,53,0.812,40.0,41.3,39.0,11.36,14.1,180,11,19.4,0.00312,0.00414,54.7,56.8,26,506,0,75.0,13.52,0.00,0.00
15min,AgWx,beryljct,423,19MAY2020:08:45:00,60.1,13.68,56.3,55.9,56.4,57.2,55.7,54,57,52,0.844,40.2,41.5,39.2,15.96,14.6,178,11,21.8,0.00338,0.00445,54.7,56.8,25,562,0,74.8,13.53,0.00,0.00
15min,AgWx,beryljct,423,19MAY2020:09:00:00,60.5,13.82,56.3,56.5,56.2,57.0,55.3,54,56,53,0.849,40.0,41.2,39.3,17.16,17.2,171,11,22.8,0.00345,0.00461,54.7,56.8,25,573,0,71.7,13.52,0.00,0.00
15min,AgWx,beryljct,423,19MAY2020:09:15:00,61.0,14.27,56.5,57.2,56.7,57.5,56.0,54,57,51,0.840,40.0,41.3,39.0,21.13,18.4,172,12,23.5,0.00359,0.00482,54.8,56.8,25,593,0,71.9,13.52,0.00,0.00
15min,AgWx,beryljct,423,19MAY2020:09:30:00,61.5,14.25,58.5,57.8,57.4,58.3,56.5,52,56,48,0.822,39.9,41.6,37.9,18.33,20.2,177,14,29.6,0.00432,0.00571,54.9,56.7,25,778,0,76.1,13.52,0.00,0.00
15min,AgWx,beryljct,423,19MAY2020:09:45:00,62.0,14.23,58.4,58.6,57.9,59.1,57.0,50,52,47,0.794,39.5,41.0,38.1,22.38,19.4,188,13,28.9,0.00456,0.00599,54.9,56.6,25,810,0,77.6,13.52,0.00,0.00
15min,AgWx,beryljct,423,19MAY2020:10:00:00,62.6,14.27,57.8,57.6,58.1,58.9,57.4,48,52,45,0.747,38.5,41.2,36.9,17.21,20.7,177,12,34.5,0.00485,0.00640,55.0,56.6,25,869,0,77.4,13.52,0.00,0.00
15min,AgWx,beryljct,423,19MAY2020:10:15:00,63.1,14.24,59.1,59.4,59.1,60.5,57.7,44,53,40,0.693,37.4,40.7,35.2,21.07,19.7,180,13,29.0,0.00511,0.00675,55.1,56.6,25,880,0,78.3,13.52,0.00,0.00
15min,AgWx,beryljct,423,19MAY2020:10:30:00,63.5,14.31,59.0,59.3,59.3,60.3,58.4,39,42,35,0.676,34.3,37.1,31.2,30.14,22.8,189,10,31.0,0.00544,0.00736,55.2,56.6,25,907,0,77.1,13.51,0.00,0.00
15min,AgWx,beryljct,423,19MAY2020:10:45:00,63.7,14.27,60.4,60.2,59.1,60.2,58.2,40,44,37,0.775,34.7,38.0,33.0,17.89,22.1,185,11,34.6,0.00551,0.00740,55.4,56.6,25,942,0,76.4,13.51,0.00,0.00
15min,AgWx,beryljct,423,19MAY2020:11:00:00,63.7,14.2,59.2,59.6,59.2,60.1,58.1,42,47,39,0.725,36.2,39.0,34.3,19.49,20.4,193,12,30.1,0.00550,0.00726,55.5,56.5,25,961,0,77.2,13.51,0.00,0.00
15min,AgWx,beryljct,423,19MAY2020:11:15:00,63.9,14.21,58.6,58.6,59.3,60.0,58.5,42,45,39,0.726,36.3,37.6,34.1,13.22,18.5,192,12,26.0,0.00565,0.00734,55.7,56.5,25,993,0,78.3,13.50,0.00,0.00
15min,AgWx,beryljct,423,19MAY2020:11:30:00,63.6,14.27,58.4,58.2,58.3,59.0,57.5,44,47,40,0.700,36.5,38.9,33.7,24.73,19.4,201,11,27.6,0.00540,0.00702,55.9,56.5,25,971,0,75.6,13.51,0.01,0.00
15min,AgWx,beryljct,423,19MAY2020:11:45:00,63.5,13.82,58.6,59.0,59.1,60.4,58.1,41,45,38,0.653,35.2,38.8,33.5,20.94,20.4,194,15,29.2,0.00580,0.00760,56.1,56.5,25,1031,0,76.2,13.51,0.00,0.00
15min,AgWx,beryljct,423,19MAY2020:12:00:00,63.8,13.88,59.5,59.3,59.4,59.9,58.5,37,42,33,0.625,33.4,36.4,30.5,19.2,20.0,205,14,28.8,0.00605,0.00794,56.4,56.5,25,1056,0,76.8,13.50,0.00,0.00
15min,AgWx,beryljct,423,19MAY2020:12:15:00,63.8,13.8,61.5,60.6,59.7,60.6,59.0,36,41,33,0.612,33.0,36.2,29.8,18.02,18.0,199,16,26.5,0.00609,0.00792,56.7,56.5,25,1049,0,76.5,13.50,0.00,0.00
15min,AgWx,beryljct,423,19MAY2020:12:30:00,64.0,13.79,59.5,59.3,59.7,61.1,58.3,34,40,28,0.562,30.9,35.9,25.7,14.84,15.5,199,18,21.5,0.00568,0.00742,57.0,56.5,25,921,0,75.3,13.51,0.01,0.00
15min,AgWx,beryljct,423,19MAY2020:12:45:00,64.0,13.83,60.1,59.9,59.8,60.7,58.9,30,34,27,0.513,28.5,31.2,25.5,24.03,17.0,209,11,26.7,0.00623,0.00816,57.3,56.5,25,1037,0,75.2,13.50,0.00,0.00
15min,AgWx,beryljct,423,19MAY2020:13:00:00,63.9,13.82,59.7,59.9,59.5,60.0,58.7,28,33,25,0.478,26.6,30.0,23.5,19.82,19.7,216,14,30.7,0.00626,0.00838,57.7,56.5,25,1032,0,72.5,13.50,0.00,0.00
15min,AgWx,beryljct,423,19MAY2020:13:15:00,64.0,13.82,60.1,59.9,59.9,61.0,58.9,25,30,22,0.456,24.1,28.1,20.7,19.71,16.8,201,14,25.8,0.00635,0.00840,58.0,56.6,25,1026,0,73.8,13.50,0.00,0.00
15min,AgWx,beryljct,423,19MAY2020:13:30:00,64.1,13.79,60.8,60.5,60.2,61.6,59.0,24,31,20,0.408,23.4,28.9,18.9,17.16,17.4,202,18,27.3,0.00640,0.00852,58.3,56.6,24,1020,0,73.1,13.50,0.00,0.00
15min,AgWx,beryljct,423,19MAY2020:13:45:00,64.0,13.85,59.1,59.9,59.6,60.5,59.0,25,29,21,0.424,23.8,27.3,19.9,25.93,18.6,214,11,26.0,0.00623,0.00837,58.6,56.6,24,999,0,69.8,13.50,0.00,0.00
15min,AgWx,beryljct,423,19MAY2020:14:00:00,63.8,13.83,59.0,60.2,60.1,61.0,59.6,22,26,19,0.330,20.6,25.3,16.9,18.33,20.5,203,14,27.1,0.00638,0.00875,59.0,56.6,24,986,0,68.6,13.50,0.00,0.00
15min,AgWx,beryljct,423,19MAY2020:14:15:00,63.8,13.8,60.3,60.1,60.1,60.9,59.5,20,24,15,0.364,18.7,22.8,13.1,16.73,19.8,198,15,28.5,0.00633,0.00869,59.2,56.7,24,963,0,69.5,13.50,0.00,0.00
15min,AgWx,beryljct,423,19MAY2020:14:30:00,63.8,13.82,59.1,60.3,59.9,60.9,59.0,21,25,14,0.306,19.4,24.4,11.9,18.72,18.9,214,12,28.7,0.00616,0.00843,59.5,56.7,24,940,0,68.3,13.50,0.00,0.00
15min,AgWx,beryljct,423,19MAY2020:14:45:00,64.0,13.77,59.5,60.5,60.0,60.9,59.3,21,25,16,0.391,19.9,24.2,14.7,19.23,17.6,207,13,24.2,0.00599,0.00817,59.7,56.8,24,908,0,68.0,13.50,0.00,0.00
15min,AgWx,beryljct,423,19MAY2020:15:00:00,64.1,13.77,59.7,59.3,59.7,60.3,59.0,20,22,17,0.362,18.2,20.9,15.3,16.31,20.3,216,12,31.9,0.00592,0.00828,59.9,56.8,24,868,0,65.8,13.50,0.00,0.00
15min,AgWx,beryljct,423,19MAY2020:15:15:00,64.3,13.75,60.2,59.7,59.9,60.9,59.4,18,23,15,0.278,16.7,22.0,12.6,14.32,19.0,203,12,25.5,0.00578,0.00809,60.0,56.9,24,828,0,65.8,13.50,0.00,0.00
15min,AgWx,beryljct,423,19MAY2020:15:30:00,64.4,13.74,59.5,59.2,59.8,60.4,59.1,19,22,16,0.350,17.1,20.6,13.7,20.06,19.1,209,12,27.8,0.00569,0.00798,60.2,56.9,24,812,0,64.5,13.50,0.00,0.00
15min,AgWx,beryljct,423,19MAY2020:15:45:00,64.3,13.8,58.3,58.5,59.2,59.8,58.5,20,24,17,0.375,18.0,21.8,14.0,17.69,20.9,216,16,29.5,0.00548,0.00782,60.2,57.0,24,768,0,62.9,13.50,0.00,0.00
15min,AgWx,beryljct,423,19MAY2020:16:00:00,64.1,13.74,58.6,58.9,59.1,59.7,58.3,22,26,18,0.337,20.3,24.2,15.7,13.64,17.0,212,13,23.4,0.00501,0.00704,60.3,57.0,24,711,0,62.7,13.50,0.00,0.00
15min,AgWx,beryljct,423,19MAY2020:16:15:00,64.0,13.8,59.2,59.0,59.1,59.7,58.2,21,24,19,0.377,19.5,22.5,16.5,18.61,18.5,209,14,25.8,0.00494,0.00707,60.3,57.0,24,674,0,61.7,13.49,0.00,0.00
15min,AgWx,beryljct,423,19MAY2020:16:30:00,64.0,13.73,58.4,58.6,59.2,59.9,58.3,21,25,18,0.382,19.5,23.2,16.2,20.74,17.7,211,15,26.9,0.00478,0.00686,60.3,57.1,24,640,0,61.5,13.50,0.01,0.00
15min,AgWx,beryljct,423,19MAY2020:16:45:00,63.8,13.74,59.0,59.2,59.0,60.0,58.2,22,24,18,0.307,19.6,23.2,15.5,14.53,16.5,206,12,24.4,0.00447,0.00645,60.2,57.2,24,589,0,60.5,13.50,0.00,0.00
15min,AgWx,beryljct,423,19MAY2020:17:00:00,63.7,13.77,58.9,58.7,59.0,59.9,58.3,20,24,16,0.347,18.3,21.9,14.1,12.67,15.6,206,16,22.5,0.00422,0.00615,60.2,57.2,24,534,0,60.1,13.49,0.00,0.00
15min,AgWx,beryljct,423,19MAY2020:17:15:00,63.2,13.8,57.9,58.2,58.1,58.8,57.5,21,23,19,0.328,17.9,20.6,16.1,13.77,17.3,219,12,23.2,0.00402,0.00601,60.1,57.3,24,481,0,58.1,13.49,0.00,0.00
15min,AgWx,beryljct,423,19MAY2020:17:30:00,62.6,13.78,57.4,57.3,57.8,58.7,57.2,19,23,17,0.271,15.8,20.7,12.5,20.12,19.5,217,11,27.4,0.00396,0.00610,60.0,57.3,24,431,0,57.1,13.50,0.00,0.00
15min,AgWx,beryljct,423,19MAY2020:17:45:00,62.0,13.32,56.9,57.1,57.1,57.4,56.8,19,21,16,0.311,14.7,17.7,11.9,16.35,19.0,219,11,26.2,0.00370,0.00578,59.9,57.3,24,380,0,55.8,13.50,0.00,0.00
15min,AgWx,beryljct,423,19MAY2020:18:00:00,61.2,13.17,57.3,57.1,56.8,57.3,55.8,19,21,16,0.280,14.8,17.5,10.7,18.79,16.1,201,11,24.1,0.00298,0.00482,59.8,57.4,24,264,0,54.7,13.50,0.00,0.00
15min,AgWx,beryljct,423,19MAY2020:18:15:00,60.8,13.12,56.4,56.2,56.7,57.2,56.0,19,20,17,0.303,14.9,16.1,12.7,16.81,16.5,196,11,23.5,0.00293,0.00479,59.7,57.4,24,244,0,54.4,13.50,0.00,0.00
15min,AgWx,beryljct,423,19MAY2020:18:30:00,60.2,13.08,56.2,55.9,56.2,56.3,55.9,20,22,19,0.323,15.8,18.1,14.7,17.67,15.4,195,9.5,19.6,0.00263,0.00437,59.5,57.5,24,212,0,53.4,13.50,0.00,0.00
15min,AgWx,beryljct,423,19MAY2020:18:45:00,59.7,13.06,54.4,54.8,55.5,56.2,54.6,21,24,19,0.325,16.6,19.1,14.4,11.99,12.9,208,20,20.0,0.00108,0.00127,59.3,57.5,23,174,0,53.0,13.50,0.00,0.00
15min,AgWx,beryljct,423,19MAY2020:19:00:00,58.7,13.06,52.7,52.5,52.9,54.6,52.1,34,38,23,0.446,25.2,27.7,17.4,15.59,11.9,250,13,18.9,0.00077,0.00091,59.2,57.5,23,111,0,49.8,13.50,0.00,0.00
15min,AgWx,beryljct,423,19MAY2020:19:15:00,56.8,13.02,49.8,50.2,51.2,52.6,50.2,36,38,33,0.469,25.0,25.7,24.4,10.87,14.7,255,9.8,20.9,0.00068,0.00080,59.0,57.5,24,30,0,46.5,13.50,0.01,0.00
15min,AgWx,beryljct,423,19MAY2020:19:30:00,54.6,13.01,48.8,48.4,48.9,50.2,48.4,40,42,38,0.465,25.8,26.6,25.1,13.68,11.8,259,8.8,17.1,0.00051,0.00061,58.8,57.6,23,11,0,43.7,13.50,0.00,0.00
15min,AgWx,beryljct,423,19MAY2020:19:45:00,52.7,13,47.5,47.1,47.7,48.5,47.1,42,43,40,0.473,25.7,26.1,25.1,10.59,10.4,263,8.1,15.2,0.00043,0.00053,58.6,57.6,25,6,0,42.2,13.51,0.01,0.00
15min,AgWx,beryljct,423,19MAY2020:20:00:00,51.1,12.99,47.6,47.5,47.0,47.6,46.7,44,45,43,0.498,26.3,27.0,25.7,13.64,12.3,270,9.3,20.5,0.00044,0.00053,58.4,57.6,23,1,0,41.4,13.51,0.00,0.00
15min,AgWx,beryljct,423,19MAY2020:20:15:00,50.4,12.98,46.9,47.1,47.4,47.8,47.1,48,50,44,0.552,28.7,29.5,26.9,13.59,17.3,272,11,23.4,0.00049,0.00057,58.3,57.6,23,0,0,42.1,13.51,0.00,0.00
15min,AgWx,beryljct,423,19MAY2020:20:30:00,49.7,12.97,46.0,45.8,46.4,47.0,45.8,53,56,50,0.588,30.2,31.1,29.4,18.13,15.3,272,10,21.1,0.00040,0.00047,58.0,57.6,23,0,0,40.8,13.51,0.00,0.00
15min,AgWx,beryljct,423,19MAY2020:20:45:00,48.8,12.96,45.0,44.7,45.4,45.8,44.7,57,59,56,0.591,31.1,31.3,30.9,17.25,17.1,269,9.2,22.9,0.00037,0.00042,57.9,57.6,23,0,0,39.7,13.51,0.00,0.00
15min,AgWx,beryljct,423,19MAY2020:21:00:00,48.0,12.96,44.0,43.6,44.2,44.8,43.6,60,62,58,0.591,31.2,31.4,31.0,13.22,13.6,268,8.5,20.5,0.00029,0.00034,57.7,57.6,23,0,0,38.4,13.51,0.00,0.00
15min,AgWx,beryljct,423,19MAY2020:21:15:00,47.1,12.95,43.4,43.0,43.4,43.7,43.0,62,63,61,0.591,31.3,31.4,31.1,10.46,10.6,262,8.6,16.4,0.00022,0.00027,57.5,57.6,24,0,0,37.3,13.51,0.00,0.00
15min,AgWx,beryljct,423,19MAY2020:21:30:00,46.4,12.94,43.6,43.4,43.3,43.5,43.0,61,63,59,0.569,30.7,31.2,30.1,8.29,10.2,251,14,15.6,0.00022,0.00027,57.3,57.5,23,0,0,37.2,13.52,0.00,0.00
15min,AgWx,beryljct,423,19MAY2020:21:45:00,45.8,12.94,41.7,41.9,42.7,43.6,41.8,60,62,58,0.559,29.9,30.4,29.7,7.234,7.8,205,11,13.5,0.00017,0.00022,57.1,57.5,23,0,0,35.9,13.52,0.00,0.00
15min,AgWx,beryljct,423,19MAY2020:22:00:00,45.0,12.92,41.7,41.6,41.7,42.1,41.1,63,64,62,0.563,29.9,30.1,29.8,5.787,6.9,200,13,10.2,0.00012,0.00017,56.9,57.5,23,0,0,35.5,13.52,0.00,0.00
15min,AgWx,beryljct,423,19MAY2020:22:15:00,44.2,12.9,39.6,40.0,41.2,41.7,40.0,63,66,62,0.552,29.6,30.0,29.4,4.362,6.2,182,7.1,7.8,0.00010,0.00014,56.7,57.5,23,0,0,35.4,13.52,0.00,0.00
15min,AgWx,beryljct,423,19MAY2020:22:30:00,43.2,12.9,39.1,38.8,39.2,40.0,38.6,68,70,66,0.556,29.5,29.8,29.2,4.889,4.9,190,7.9,6.1,0.00003,0.00005,56.6,57.4,23,0,0,35.3,13.52,0.00,0.00
15min,AgWx,beryljct,423,19MAY2020:22:45:00,42.2,12.89,38.9,38.2,38.5,39.0,38.0,70,71,69,0.554,29.5,29.8,29.4,6.292,5.2,203,4.9,6.3,0.00002,0.00005,56.4,57.4,23,0,0,35.5,13.53,0.00,0.00
15min,AgWx,bigpiney,439,19MAY2020:00:00:00,48.7,12.69,42.6,42.7,45.7,48.6,42.7,54,63,45,0.585,30.1,32.1,28.2,4.889,4.2,248,23,5.8,0.00007,0.00011,50.6,42.6,55,0,0,0.0,6.59,0.00,0.00
15min,AgWx,bigpiney,439,19MAY2020:00:15:00,48.2,12.69,43.2,43.2,43.5,44.0,42.7,62,65,60,0.620,31.2,32.4,30.7,2.696,4.4,226,9.4,5.3,0.00003,0.00007,50.4,42.7,55,0,0,0.0,6.59,0.00,0.00
15min,AgWx,bigpiney,439,19MAY2020:00:30:00,47.6,12.68,44.6,44.2,43.5,44.2,42.3,57,67,52,0.509,29.3,32.8,27.5,3.157,3.2,312,21,4.3,-0.00002,0.00001,50.3,42.7,55,0,0,0.0,6.59,0.00,0.00
15min,AgWx,bigpiney,439,19MAY2020:00:45:00,47.1,12.67,45.3,45.8,46.6,48.1,44.3,47,51,43,0.537,27.2,28.8,26.3,2.28,3.5,277,11,4.5,0.00006,0.00011,50.1,42.7,55,0,0,0.0,6.59,0.00,0.00
15min,AgWx,bigpiney,439,19MAY2020:01:00:00,46.8,12.67,45.7,46.1,45.0,46.4,43.2,52,59,47,0.523,28.5,30.2,27.2,4.626,3.5,280,12,5.7,0.00003,0.00007,50.0,42.7,55,0,0,0.0,6.59,0.00,0.00
15min,AgWx,bigpiney,439,19MAY2020:01:15:00,46.5,12.66,45.0,46.0,46.3,48.8,43.2,49,60,42,0.528,28.3,30.3,27.0,0.022,3.5,309,71,5.4,0.00005,0.00010,49.9,42.7,55,0,0,0.0,6.59,0.00,0.00
15min,AgWx,bigpiney,439,19MAY2020:01:30:00,46.2,12.65,40.4,38.9,41.5,45.9,38.8,62,67,50,0.540,29.2,30.2,28.5,0.57,1.3,89,29,5.2,-0.00016,-0.00021,49.7,42.7,55,0,0,0.0,6.59,0.00,0.00
15min,AgWx,bigpiney,439,19MAY2020:01:45:00,45.4,12.65,37.9,38.1,39.4,40.3,38.1,69,74,65,0.571,30.2,31.4,29.1,5.853,2.7,199,16,5.9,-0.00008,-0.00009,49.6,42.7,55,0,0,0.0,6.59,0.00,0.00
15min,AgWx,bigpiney,439,19MAY2020:02:00:00,44.6,12.64,38.3,37.7,37.6,38.1,37.2,78,79,73,0.596,31.3,31.8,30.3,4.056,4.0,251,7.4,5.6,-0.00006,-0.00006,49.4,42.7,55,0,0,0.0,6.59,0.00,0.00
15min,AgWx,bigpiney,439,19MAY2020:02:15:00,43.7,12.62,38.5,37.9,38.0,38.6,37.6,76,79,71,0.577,31.1,32.3,29.8,1.841,2.6,233,15,4.1,-0.00010,-0.00012,49.3,42.7,55,0,0,0.0,6.59,0.00,0.00
15min,AgWx,bigpiney,439,19MAY2020:02:30:00,43.0,12.62,39.5,39.1,38.9,39.9,37.9,71,79,65,0.561,30.1,32.1,29.0,2.784,2.1,257,23,3.9,-0.00012,-0.00014,49.1,42.7,55,0,0,0.0,6.59,0.00,0.00
15min,AgWx,bigpiney,439,19MAY2020:02:45:00,42.4,12.61,40.2,40.4,40.0,40.5,39.2,62,68,60,0.509,28.1,29.7,27.5,2.959,2.7,310,6.9,4.0,-0.00006,-0.00006,49.0,42.8,55,0,0,0.0,6.59,0.00,0.00
15min,AgWx,bigpiney,439,19MAY2020:03:00:00,42.0,12.61,40.4,40.9,40.5,41.3,40.0,59,61,56,0.501,27.2,27.8,26.8,2.499,2.5,300,16,3.3,-0.00007,-0.00007,48.8,42.8,55,0,0,0.0,6.59,0.00,0.00
15min,AgWx,bigpiney,439,19MAY2020:03:15:00,41.7,12.6,36.8,36.8,38.8,40.9,36.8,70,81,58,0.593,29.7,31.8,27.4,0,1.1,263,44,3.2,-0.00018,-0.00025,48.7,42.7,55,0,0,0.0,6.59,0.00,0.00
15min,AgWx,bigpiney,439,19MAY2020:03:30:00,41.1,12.59,33.5,33.0,35.1,36.8,32.6,79,83,75,0.506,29.2,31.5,27.0,2.017,1.5,140,14,2.7,-0.00016,-0.00021,48.5,42.8,55,0,0,0.0,6.59,0.00,0.00
15min,AgWx,bigpiney,439,19MAY2020:03:45:00,40.3,12.59,33.0,32.6,33.6,35.4,32.4,79,85,70,0.528,27.7,28.6,26.5,5.283,3.6,207,27,5.4,-0.00007,-0.00007,48.4,42.7,55,0,0,0.0,6.59,0.00,0.00
15min,AgWx,bigpiney,439,19MAY2020:04:00:00,39.4,12.56,34.9,34.4,33.1,34.4,32.4,84,86,82,0.551,28.7,29.5,27.6,3.244,3.7,238,12,5.2,-0.00008,-0.00009,48.2,42.7,55,0,0,0.0,6.59,0.00,0.00
15min,AgWx,bigpiney,439,19MAY2020:04:15:00,38.9,12.56,36.4,36.1,35.2,36.1,34.4,75,82,70,0.508,28.1,29.5,27.3,5.261,4.2,262,9.3,5.4,-0.00004,-0.00003,48.1,42.7,55,0,0,0.0,6.59,0.00,0.00
15min,AgWx,bigpiney,439,19MAY2020:04:30:00,38.6,12.55,35.4,34.9,35.2,36.1,34.6,75,77,70,0.509,27.9,28.7,27.3,3.157,3.3,259,8.2,5.2,-0.00007,-0.00007,47.9,42.7,55,0,0,0.0,6.59,0.00,0.00
15min,AgWx,bigpiney,439,19MAY2020:04:45:00,38.5,12.54,33.2,33.3,34.3,35.8,33.1,78,81,74,0.520,28.1,29.0,27.4,2.411,3.4,238,6.1,4.9,-0.00007,-0.00008,47.8,42.7,55,1,0,0.0,6.59,0.00,0.00
15min,AgWx,bigpiney,439,19MAY2020:05:00:00,38.1,12.54,33.2,33.3,33.3,34.0,32.7,81,83,78,0.514,28.0,28.3,27.8,3.398,0.5,239,6.6,3.4,-0.00021,-0.00030,47.6,42.7,55,4,0,0.0,6.59,0.00,0.00
15min,AgWx,bigpiney,439,19MAY2020:05:15:00,37.6,12.55,32.1,31.7,32.4,33.6,31.6,81,84,78,0.500,27.3,27.8,26.9,2.74,3.4,227,6.6,4.4,-0.00022,-0.00016,47.5,42.7,55,19,0,0.0,6.59,0.00,0.00
15min,AgWx,bigpiney,439,19MAY2020:05:30:00,37.3,12.56,34.3,33.7,32.5,33.7,31.7,84,86,83,0.553,28.2,29.6,27.2,2.368,3.2,236,12,4.1,-0.00011,-0.00006,47.3,42.7,55,51,0,0.0,6.59,0.00,0.00
15min,AgWx,bigpiney,439,19MAY2020:05:45:00,37.4,12.58,37.5,37.0,35.1,37.0,33.8,80,84,77,0.573,29.4,30.7,28.7,2.696,2.2,207,20,3.7,0.00002,0.00008,47.1,42.7,55,87,0,0.0,6.59,0.00,0.00
15min,AgWx,bigpiney,439,19MAY2020:06:00:00,38.3,12.59,36.6,36.1,37.1,38.4,36.0,77,80,75,0.574,30.7,32.6,30.0,1.008,2.3,179,50,3.4,0.00021,0.00029,47.0,42.6,55,126,0,0.0,6.59,0.00,0.00
15min,AgWx,bigpiney,439,19MAY2020:06:15:00,39.6,12.61,40.5,40.0,37.9,40.0,36.1,78,81,75,0.630,31.8,33.4,30.3,1.513,1.7,170,26,3.2,0.00039,0.00046,46.8,42.6,55,168,0,0.0,6.59,0.00,0.00
15min,AgWx,bigpiney,439,19MAY2020:06:30:00,41.3,12.62,42.6,42.7,41.3,42.7,40.0,75,79,71,0.672,34.0,35.3,33.0,0,0.2,155,17,1.7,0.00061,0.00066,46.7,42.7,55,212,0,0.0,6.59,0.00,0.00
15min,AgWx,bigpiney,439,19MAY2020:06:45:00,43.5,12.66,45.2,44.8,43.8,44.8,42.6,69,72,63,0.637,34.4,36.0,32.8,0,0.1,144,18,1.2,0.00088,0.00095,46.6,42.6,55,259,0,0.0,6.59,0.00,0.00
15min,AgWx,bigpiney,439,19MAY2020:07:00:00,45.9,12.75,47.1,46.7,45.9,46.8,44.9,62,66,57,0.683,33.5,36.1,31.1,1.688,0.2,103,32,1.7,0.00118,0.00127,46.4,42.6,55,308,0,0.0,6.59,0.00,0.00
15min,AgWx,bigpiney,439,19MAY2020:07:15:00,48.1,12.99,48.7,47.5,47.0,47.5,46.6,57,62,52,0.596,32.3,34.8,30.6,0,1.7,77,19,3.0,0.00155,0.00177,46.3,42.6,55,358,0,0.0,6.59,0.00,0.00
15min,AgWx,bigpiney,439,19MAY2020:07:30:00,50.0,13.35,48.6,48.3,48.0,48.5,47.6,50,55,47,0.567,30.3,32.5,28.7,2.916,1.5,63,25,2.9,0.00185,0.00209,46.1,42.6,55,407,0,0.0,6.59,0.00,0.00
15min,AgWx,bigpiney,439,19MAY2020:07:45:00,51.5,13.62,49.6,49.2,48.8,49.3,48.3,48,51,45,0.546,30.2,31.6,28.9,1.82,2.4,78,19,3.7,0.00220,0.00253,46.0,42.6,55,456,0,0.0,6.59,0.00,0.00
15min,AgWx,bigpiney,439,19MAY2020:08:00:00,52.9,14.02,51.5,50.7,50.1,50.7,49.2,48,52,45,0.592,31.0,33.6,29.0,2.258,2.7,67,24,4.7,0.00251,0.00290,45.8,42.5,55,503,0,0.0,6.59,0.00,0.00
15min,AgWx,bigpiney,439,19MAY2020:08:15:00,54.4,14.53,51.8,51.8,51.4,51.9,50.9,46,51,42,0.610,31.6,33.7,29.2,4.428,3.7,93,15,6.5,0.00286,0.00336,45.7,42.6,55,550,0,0.0,6.59,0.00,0.00
15min,AgWx,bigpiney,439,19MAY2020:08:30:00,55.7,14.53,54.2,53.4,52.9,53.5,51.8,48,51,45,0.672,33.7,35.4,31.2,1.907,3.0,90,25,5.5,0.00316,0.00362,45.6,42.6,55,595,0,0.0,6.59,0.00,0.00
15min,AgWx,bigpiney,439,19MAY2020:08:45:00,57.3,14.34,57.0,56.4,55.8,56.9,53.5,43,53,38,0.612,33.6,37.1,31.0,3.003,4.1,108,26,6.8,0.00360,0.00421,45.6,42.5,55,638,0,0.0,6.59,0.00,0.00